Location: New Plymouth
(39.0670°S, 174.0830°E)
Time: 10:22:25
(UTC+12:00)

STRAND 1 - Pass Details

Date: 26 August 2019
Orbit: 768 x 781 km, 98.5° (Epoch: 19 September)

Event Time Altitude Azimuth Distance (km) Brightness Sun altitude
Rises 18:58:25 0° 18° (NNE) 3,247 ? -12.9°
Reaches altitude 10° 19:00:42 10° 19° (NNE) 2,330 ? -13.4°
Maximum altitude 19:05:51 81° 105° (ESE) 804 ? -14.4°
Drops below altitude 10° 19:11:05 10° 191° (S) 2,368 ? -15.4°
Sets 19:13:26 0° 191° (SSW) 3,304 ? -15.8°
